Tracking 20712 objects as of 30-May-2020
HD Live streaming from Space Station
objects crossing your sky now

SBS 6

Track SBS 6 now!
SBS 6 is classified as:


NORAD ID: 20872
Int'l Code: 1990-091A
Perigee: 36,118.8 km
Apogee: 36,193.6 km
Inclination: 9.4 °
Period: 1,454.7 minutes
Semi major axis: 42527 km
RCS: 24.6021 m2 (large)
Launch date: October 12, 1990
Source: United States (US)
Launch site: FRENCH GUIANA (FRGUI)
aabbcc
Your satellite tracking list
Your tracking list is empty




NASA's NSSDC Master Catalog

Two Line Element Set (TLE):
1 20872U 90091A   20150.37132557 -.00000027 +00000-0 +00000-0 0  9999
2 20872 009.3834 043.0495 0008799 043.7342 324.2441 00.98992654024221
Source of the keplerian elements: AFSPC